Volver al catálogo

STARLINK-4762

ActivoComunicacionesVLEO
NORAD 53866·PAYLOAD·🇺🇸 United States

Lanzado Sep 19, 2022 desde Cape Canaveral Space Force Station

Loading…

Próximos Pases (próximas 24 horas)

TLE

ActualizadoSource: CelesTrak SupGP

Época: Sep 14, 2026, 22:04 UTC

1 53866C 22114BA  26257.91993056 -.00006977  00000+0 -20616-3 0  2577
2 53866  53.1566 119.7789 0001449  83.9360 233.0719 15.34388883    12

Sigue STARLINK-4762 en tiempo real con AllMySat

Download on the App Store